Simultaneous Nadir Overpasses (SNOs) Predictions

Prediction of SNOs between GOES-17 and METOP-B Satellite Orbit:

Table of predicted SNOs for the next 14.0 days since TLE Epoch: 3/21/2025
Index Date Time (GOES-17) GOES-17 Lat,Lon METOP-B Lat,Lon Distance(km) Time Diff (sec)
1 03/22/2025 15:59:37 0.03,-104.42 -0.35,-102.63 202.62 80
2 03/24/2025 04:18:40 -0.03,-104.37 -0.68,-107.26 329.35 80
3 03/25/2025 04:00:43 -0.03,-104.37 0.42,-102.28 237.54 80
4 03/26/2025 16:19:38 0.03,-104.41 0.57,-106.88 281.93 80
5 03/27/2025 15:56:21 0.03,-104.41 -0.54,-101.91 284.99 80
6 03/29/2025 04:15:23 -0.03,-104.37 -0.53,-106.53 246.75 80
7 03/30/2025 03:57:26 -0.03,-104.36 0.59,-101.55 320.40 80
8 03/31/2025 16:16:20 0.03,-104.40 0.43,-106.14 198.77 80
9 04/01/2025 15:53:02 0.02,-104.40 -0.70,-101.17 368.04 80
10 04/03/2025 04:12:05 -0.02,-104.35 -0.35,-105.79 164.25 80
11 04/04/2025 03:54:06 -0.02,-104.35 0.73,-100.81 402.63 80
